Date,TemperatureHighF,TemperatureAvgF,TemperatureLowF,DewpointHighF,DewpointAvgF,DewpointLowF,HumidityHigh,HumidityAvg,HumidityLow,PressureMaxIn,PressureMinIn,WindSpeedMaxMPH,WindSpeedAvgMPH,GustSpeedMaxMPH,PrecipitationSumIn
2013-2-1,40,35,26,19,15,10,51,45,42,29.26,29.00,9,2,9,0.00
2013-2-2,49,34,20,34,17,6,93,52,36,29.23,29.00,11,0,11,0.20
2013-2-3,52,40,30,40,26,15,100,64,33,29.03,28.91,13,2,13,0.00
2013-2-4,44,34,26,21,15,10,51,45,39,29.06,28.91,5,0,5,0.00
2013-2-5,52,42,29,32,24,12,69,50,36,28.94,28.85,7,0,7,0.00
2013-2-6,63,48,36,48,32,18,100,59,33,29.09,28.94,6,0,6,0.00
2013-2-7,44,40,38,41,34,18,100,83,39,29.06,28.85,11,2,11,0.12
2013-2-8,49,42,33,48,38,17,100,87,45,29.09,28.85,8,0,8,0.08
2013-2-9,58,43,27,34,26,17,100,56,33,29.21,29.06,8,0,8,0.00
2013-2-10,56,47,38,48,30,17,100,57,33,29.21,28.97,14,2,14,1.10
2013-2-11,52,49,46,52,49,46,100,100,100,29.06,28.94,5,0,5,0.35
2013-2-12,51,46,41,48,40,26,100,83,42,29.03,28.76,8,0,8,0.35
2013-2-13,53,45,38,53,43,28,100,92,63,28.91,28.67,9,1,10,0.04
2013-2-14,57,45,38,36,26,19,90,49,30,28.97,28.88,8,0,8,0.00
2013-2-15,65,47,34,45,30,15,99,58,30,29.03,28.91,10,0,10,0.00
2013-2-16,46,38,29,22,17,12,48,43,39,29.03,28.88,12,2,12,0.00
2013-2-17,46,34,23,22,15,8,51,45,39,29.18,29.03,9,1,9,0.00
2013-2-18,56,42,25,32,20,9,51,42,33,29.23,29.00,13,3,13,0.00
2013-2-19,51,40,31,45,24,12,100,56,36,29.06,28.91,11,2,12,0.31
2013-2-20,45,34,23,22,15,8,51,45,39,29.09,29.00,7,2,9,0.00
2013-2-21,56,40,23,31,20,8,51,44,36,29.09,28.85,12,2,12,0.12
2013-2-22,38,33,31,34,32,17,100,97,42,29.06,28.94,12,4,12,0.83
2013-2-23,41,39,34,41,39,34,100,100,100,28.88,28.76,4,0,4,0.83
2013-2-24,55,40,31,44,30,16,100,73,33,28.94,28.79,8,0,8,0.83
2013-2-25,44,39,34,35,21,15,100,49,39,28.94,28.76,15,4,15,0.83
2013-2-26,42,35,30,42,35,30,100,99,90,28.76,28.50,15,2,15,0.94
2013-2-27,54,43,34,34,23,16,90,46,33,28.82,28.70,13,2,13,0.83
2013-2-28,44,37,32,21,17,13,45,43,30,28.91,28.76,11,3,11,0.83